Flag for France Weather past 2 weeks in Nîmes, France

Now
75 °F

Mild.


Feels Like: 78 °F
Forecast: 69 / 88 °F
Wind: 1 mph from North

Location: Nimes / Garons

Current Time: Jul 24, 2014 at 10:22:45 PM

Latest Report: Jul 24, 2014 at 10:00 PM


Visibility: N/A

Pressure: 29.86 "Hg

Humidity: 54%

Dew point: 57 °F

Location of NîmesLocation

Historic Weather in Nîmes — Graph

°F

Nîmes temperature yesterday

Maximum temperature yesterday: 90 °F (at 4:30 PM)
Minimum temperature yesterday: 68 °F (at 4:30 AM)
Average temperature yesterday: 78 °F

Past Weeks' High & Low Weather Summary

 TemperatureHumidityPressure
High91 °F (Jul 16, 4:30 PM)88% (Jul 18, 1:30 AM)30.09 "Hg (Jul 18, 1:30 AM)
Low61 °F (Jul 10, 2:30 AM)24% (Jul 16, 5:00 PM)29.80 "Hg (Jul 20, 2:00 PM)
Average74 °F51%29.95 "Hg
* Reported Jul 9 9:00 PM — Jul 24 9:00 PM, Nîmes, Weather by CustomWeather, © 2014

Note: Actual official high and low records may vary slightly from our data, if they occured in-between our weather recording intervals... More about our weather records

Advertising

Nîmes weather history for previous 24 hours

 ConditionsComfort  
Time TempWeatherWind HumidityBarometerVisibility
9:00 PM
Jul 24
75 °FMild.5 mph57%29.86 "HgN/A
8:30 PM79 °FWarm.7 mph51%29.86 "HgN/A
8:00 PM82 °FThundershowers. Cloudy.8 mph51%29.83 "HgN/A
7:30 PM84 °FPassing clouds.9 mph45%29.83 "HgN/A
7:00 PM86 °FWarm.9 mph43%29.83 "HgN/A
6:30 PM88 °FWarm.10 mph43%29.83 "HgN/A
6:00 PM88 °FClear.12 mph40%29.83 "HgN/A
5:30 PM88 °FClear.9 mph43%29.83 "HgN/A
5:00 PM88 °FClear.10 mph43%29.83 "HgN/A
4:30 PM86 °FClear.9 mph46%29.83 "HgN/A
4:00 PM90 °FClear.3 mph29%29.83 "HgN/A
3:30 PM91 °FClear.7 mph28%29.83 "HgN/A
3:00 PM91 °FClear.6 mph30%29.83 "HgN/A
2:30 PM88 °FClear.6 mph35%29.83 "HgN/A
2:00 PM88 °FClear.3 mph35%29.86 "HgN/A
1:30 PM88 °FClear.5 mph38%29.86 "HgN/A
1:00 PM88 °FClear.5 mph38%29.86 "HgN/A
12:30 PM84 °FPassing clouds.5 mph43%29.86 "HgN/A
12:00 PM84 °FPassing clouds.5 mph45%29.86 "HgN/A
11:30 AM84 °FClear.7 mph45%29.86 "HgN/A
11:00 AM82 °FClear.3 mph48%29.86 "HgN/A
10:30 AM82 °FClear.5 mph51%29.86 "HgN/A
10:00 AM79 °FClear.3 mph54%29.86 "HgN/A
9:30 AM79 °FClear.3 mph54%29.86 "HgN/A
9:00 AM77 °FClear.3 mph61%29.86 "HgN/A
8:30 AM75 °FClear.5 mph65%29.86 "HgN/A
8:00 AM73 °FClear.2 mph65%29.83 "HgN/A
7:30 AM70 °FClear.2 mph73%29.83 "HgN/A
7:00 AM68 °FClear.No wind73%29.83 "HgN/A
6:30 AM68 °FClear.No wind73%29.83 "HgN/A
6:00 AM68 °FClear.No wind73%29.83 "HgN/A
5:30 AM68 °FClear.No wind73%29.83 "HgN/A
5:00 AM68 °FClear.No wind73%29.83 "HgN/A
4:30 AM70 °FClear.2 mph69%29.83 "HgN/A
4:00 AM70 °FClear.2 mph69%29.83 "HgN/A
3:30 AM70 °FClear.No wind73%29.83 "HgN/A
2:30 AM73 °FClear.3 mph65%29.83 "HgN/A
2:00 AM73 °FClear.5 mph65%29.83 "HgN/A
1:30 AM73 °FMild.3 mph65%29.86 "HgN/A
1:00 AM73 °FMild.2 mph65%29.86 "HgN/A
12:30 AM73 °FMild.No wind69%29.86 "HgN/A
12:00 AM75 °FThunderstorms. Overcast.3 mph61%29.86 "HgN/A
11:30 PM
Jul 23
75 °FMild.3 mph61%29.86 "HgN/A
11:00 PM75 °FMild.6 mph61%29.86 "HgN/A
10:30 PM75 °FClear.6 mph61%29.86 "HgN/A
10:00 PM77 °FThundershowers. Cloudy.6 mph57%29.83 "HgN/A
Weather by CustomWeather, © 2014

See weather overviewHow to use our weather pages